Weather Roundup
Issued by NWS Chicago, IL

Home | Current Version | Previous Version | Text Only | Print | Product List | Glossary Off
Versions: 1 2 3 4 5 6 7 8 9 10 11 12 13 14 15 16 17 18 19 20 21 22 23 24 25 26 27 28 29 30 31 32 33 34 35 36 37 38 39 40 41 42 43 44 45 46 47 48 49 50

000
NZUS59 KLOT 172303
HRRLOT

CHICAGO AREA WEATHER ROUNDUP
NATIONAL WEATHER SERVICE CHICAGO/ROMEOVILLE IL
500 PM CST SUN DEC 17 2017

NOTE: "FAIR" INDICATES FEW OR NO CLOUDS BELOW 12,000 FEET WITH NO
SIGNIFICANT WEATHER AND/OR OBSTRUCTIONS TO VISIBILITY.

* THESE STATIONS ARE NOT UNDER NWS QUALITY CONTROL. THEY ALSO MAY NOT
  REPORT WEATHER SUCH AS PRECIPITATION OR FOG.

ILZ005-006-012>014-019>023-180000-
NORTHEAST ILLINOIS

CITY           SKY/WX    TMP DP  RH WIND       PRES   REMARKS
OHARE          CLOUDY    40  31  70 CALM      29.97S
MIDWAY         CLOUDY    44  32  62 CALM      29.98S
AURORA         CLOUDY    39  31  72 CALM      29.98S
LANSING*       CLOUDY    42  36  78 S7        29.99S
JOLIET*        CLOUDY    47  37  68 CALM      29.98S
WAUKEGAN       CLOUDY    35  32  88 CALM      29.97F FOG
DUPAGE AIRPORT CLOUDY    38  33  82 CALM      29.97S
WHEELING       CLOUDY    39  34  82 CALM      29.98F
KANKAKEE*      CLOUDY    44  36  75 S8        30.02R
MORRIS*        CLOUDY    46  35  65 SW6       29.98R
LEWIS AIRPORT* CLOUDY    43  32  65 SW3       29.98S
NORTHERLY ISL    N/A     38  32  79 SE3         N/A
$$

WIZ051-052-058>065-066-070>072-180000-
SOUTHEAST WISCONSIN

CITY           SKY/WX    TMP DP  RH WIND       PRES   REMARKS
MILWAUKEE      CLOUDY    36  33  89 CALM      29.98S FOG
KENOSHA*       CLOUDY    36  31  82 CALM      29.97F HAZE
RACINE*        CLOUDY    35  32  88 CALM      29.99S FOG
WAUKESHA       CLOUDY    30  28  93 NE5       29.98F FOG     WCI  25
WEST BEND      CLOUDY    32  32 100 CALM      29.98F FOG
$$

INZ001>003-010>013-019-020-180000-
NORTHWEST INDIANA

CITY           SKY/WX    TMP DP  RH WIND       PRES   REMARKS
GARY*          CLOUDY    46  32  57 VRB5      30.00R
MICHIGAN CITY* NOT AVBL
RENSSELAER*    NOT AVBL
VALPARAISO     CLOUDY    42  35  76 S5        30.01R
$$

LMZ740>746-180000-
SOUTHERN LAKE MICHIGAN

STATION/POSITION TIME  SKY/WX   TEMP WIND        PRES    VSBY
                                AIR  DIR/SP/G
                 (UTC)          (F)  (DEG/KT/KT) (MB)    (MI)
HARRISON CRIB    2240            41  120/  4/  4   N/A
BURNHAM HARBOR   2300            37  150/  2/  3   N/A
CALUMET HARBOR   2230            41  130/  2/  3 1014.7R
BURNS HARBOR     2240            44  190/  9/ 11 1015.9S
MICHIGAN CITY    2240            43  160/ 10/ 12   N/A
$$

ABBREVIATIONS USED IN REMARKS
   TC - TEMPERATURE IN CELSIUS
  WCI - WIND CHILL INDEX
   HX - HEAT INDEX
  VSB - VISIBILITY
$$




USA.gov is the U.S. government's official web portal to all federal, state and local government web resources and services.